Location: Black Swamp Observatory
(41.3920°N, 84.1250°W)
Time: 04:25:02
(UTC-05:00)

A-11 Canister half - All Passes

Search period start: 28 January 2022 00:00
Search period end: 07 February 2022 00:00
Orbit: 1524 x 1684 km, 47.3° (Epoch: 27 January)

Date Brightness Start Highest point End Pass type
(mag) Time Alt. Az. Time Alt. Az. Time Alt. Az.
28 Jan - 08:00:42 10° SE 08:03:07 11° ESE 08:05:32 10° ESE daylight
28 Jan - 09:57:31 10° SSW 10:06:16 48° SE 10:15:09 10° ENE daylight
28 Jan - 12:01:37 10° WSW 12:10:58 77° NNW 12:20:34 10° ENE daylight
28 Jan - 14:07:32 10° WNW 14:16:52 62° N 14:26:30 10° E daylight
28 Jan - 16:12:58 10° WNW 16:22:35 89° SSW 16:32:31 10° ESE daylight
28 Jan - 18:18:28 10° WNW 18:26:58 36° SW 18:35:42 10° SSE visible
29 Jan - 07:41:03 10° SE 07:41:33 10° ESE 07:42:03 10° ESE daylight
29 Jan - 09:35:59 10° SSW 09:44:39 46° SE 09:53:25 10° ENE daylight
29 Jan - 11:39:56 10° WSW 11:49:15 79° NNW 11:58:50 10° ENE daylight
29 Jan - 13:45:50 10° WNW 13:55:08 62° N 14:04:45 10° E daylight
29 Jan - 15:51:17 10° WNW 16:00:53 89° NNE 16:10:48 10° ESE daylight
29 Jan - 17:56:44 10° WNW 18:05:20 38° SW 18:14:11 10° SSE daylight
30 Jan - 09:14:27 10° SSW 09:23:02 44° SE 09:31:42 10° ENE daylight
30 Jan - 11:18:14 10° WSW 11:27:34 81° NNW 11:37:08 10° ENE daylight
30 Jan - 13:24:07 10° WNW 13:33:24 61° N 13:42:59 10° E daylight
30 Jan - 15:29:37 10° WNW 15:39:11 86° NNE 15:49:04 10° ESE daylight
30 Jan - 17:35:01 10° WNW 17:43:42 40° SW 17:52:40 10° SSE daylight
31 Jan - 08:52:56 10° SSW 09:01:25 42° SE 09:09:58 10° ENE daylight
31 Jan - 10:56:33 10° WSW 11:05:53 83° NNW 11:15:25 10° ENE daylight
31 Jan - 13:02:24 10° W 13:11:41 61° N 13:21:14 10° E daylight
31 Jan - 15:07:57 10° WNW 15:17:29 84° NNE 15:27:21 10° ESE daylight
31 Jan - 17:13:17 10° WNW 17:22:03 42° SW 17:31:06 10° SSE daylight
01 Feb - 08:31:26 10° SSW 08:39:48 40° SE 08:48:13 10° ENE daylight
01 Feb - 10:34:53 10° WSW 10:44:12 85° NNW 10:53:43 10° ENE daylight
01 Feb - 12:40:42 10° W 12:49:57 61° N 12:59:28 10° E daylight
01 Feb - 14:46:16 10° WNW 14:55:47 82° NNE 15:05:37 10° ESE daylight
01 Feb - 16:51:34 10° WNW 17:00:25 44° SW 17:09:33 10° SSE daylight
02 Feb - 08:09:56 10° SSW 08:18:12 38° SE 08:26:29 10° ENE daylight
02 Feb - 10:13:12 10° WSW 10:22:31 87° NNW 10:32:01 10° ENE daylight
02 Feb - 12:18:59 10° W 12:28:14 61° N 12:37:43 10° ENE daylight
02 Feb - 14:24:36 10° WNW 14:34:05 80° NNE 14:43:53 10° ESE daylight
02 Feb - 16:29:52 10° WNW 16:38:47 46° SW 16:47:59 10° SSE daylight
02 Feb - 18:40:22 10° WSW 18:42:03 11° WSW 18:43:44 10° SW visible
03 Feb - 07:48:27 10° SSW 07:56:35 36° SE 08:04:44 10° ENE daylight
03 Feb - 09:51:31 10° WSW 10:00:51 90° NNW 10:10:19 10° ENE daylight
03 Feb - 11:57:16 10° W 12:06:30 61° N 12:15:58 10° ENE daylight
03 Feb - 14:02:55 10° WNW 14:12:22 78° NNE 14:22:09 10° ESE daylight
03 Feb - 16:08:09 10° WNW 16:17:08 48° SW 16:26:24 10° SSE daylight
03 Feb - 18:17:34 10° WSW 18:20:27 12° WSW 18:23:24 10° SW visible
04 Feb - 07:26:59 10° SSW 07:34:59 34° SE 07:42:58 10° ENE daylight
04 Feb - 09:29:51 10° WSW 09:39:10 88° SSE 09:48:37 10° ENE daylight
04 Feb - 11:35:33 10° W 11:44:47 62° N 11:54:13 10° ENE daylight
04 Feb - 13:41:14 10° WNW 13:50:41 77° NNE 14:00:24 10° ESE daylight
04 Feb - 15:46:28 10° WNW 15:55:29 50° SW 16:04:48 10° SSE daylight
04 Feb - 17:55:10 10° W 17:58:52 13° WSW 18:02:37 10° SW daylight
05 Feb - 07:05:31 10° S 07:13:23 32° SE 07:21:13 10° ENE visible
05 Feb - 09:08:11 10° WSW 09:17:30 86° SSE 09:26:55 10° ENE daylight
05 Feb - 11:13:50 10° W 11:23:03 62° N 11:32:28 10° ENE daylight
05 Feb - 13:19:34 10° WNW 13:28:58 75° NNE 13:38:39 10° ESE daylight
05 Feb - 15:24:46 10° WNW 15:33:50 53° SW 15:43:12 10° SSE daylight
05 Feb - 17:32:57 10° W 17:37:16 14° WSW 17:41:40 10° SSW daylight
06 Feb - 06:44:04 10° S 06:51:47 30° SE 06:59:27 10° ENE visible
06 Feb - 08:46:32 10° SW 08:55:50 83° SSE 09:05:13 10° ENE daylight
06 Feb - 10:52:07 10° W 11:01:20 62° N 11:10:44 10° ENE daylight
06 Feb - 12:57:53 10° WNW 13:07:16 73° NNE 13:16:55 10° ESE daylight
06 Feb - 15:03:04 10° WNW 15:12:11 55° SW 15:21:35 10° SE daylight
06 Feb - 17:10:51 10° W 17:15:41 15° WSW 17:20:36 10° SSW daylight
